Flag for China Weather past 2 weeks in Chongqing, Chongqing Municipality, China

Now
82 °F

Passing clouds.


Feels Like: 85 °F
Forecast: 76 / 92 °F
Wind: 3 mph from Northeast

Location: Chongqing Airport

Current Time: Jul 8, 2015 at 10:48:45 AM

Latest Report: Jul 8, 2015 at 10:00 AM


Visibility: N/A

Pressure: 29.80 "Hg

Humidity: 58%

Dew point: 66 °F

Location of ChongqingLocation

Historic Weather in Chongqing — Graph

°F

Chongqing temperature yesterday

Maximum temperature yesterday: 90 °F (at 3:00 PM)
Minimum temperature yesterday: 70 °F (at 3:00 AM)
Average temperature yesterday: 80 °F

Past Weeks' High & Low Weather Summary

 TemperatureHumidityPressure
High99 °F (Jun 27, 3:00 PM)94% (Jun 29, 3:00 PM)29.89 "Hg (Jun 29, 3:00 PM)
Low66 °F (Jul 4, 6:00 AM)41% (Jul 7, 3:00 PM)29.33 "Hg (Jun 26, 4:00 PM)
Average80 °F75%29.63 "Hg
* Reported Jun 23 9:00 AM — Jul 8 9:00 AM, Chongqing, Weather by CustomWeather, © 2015

Note: Actual official high and low records may vary slightly from our data, if they occured in-between our weather recording intervals... More about our weather records

Advertising

Chongqing weather history for previous 24 hours

 ConditionsComfort  
Time TempWeatherWind HumidityBarometerVisibility
9:00 AM
Wed, Jul 8
81 °FPassing clouds.6 mph66%29.80 "HgN/A
8:00 AM79 °FSunny.1 mph70%29.77 "Hg10 mi
7:00 AM73 °FSunny.3 mph83%29.77 "Hg10 mi
6:00 AM73 °FSunny.1 mph83%29.77 "Hg10 mi
5:00 AM73 °FClear.3 mph83%29.77 "Hg10 mi
4:00 AM75 °FClear.No wind78%29.77 "Hg10 mi
3:00 AM77 °FClear.1 mph74%29.74 "Hg10 mi
2:00 AM75 °FClear.1 mph78%29.77 "Hg10 mi
1:00 AM77 °FClear.6 mph74%29.77 "Hg10 mi
12:00 AM79 °FClear.6 mph70%29.77 "Hg10 mi
11:00 PM
Tue, Jul 7
81 °FClear.6 mph66%29.77 "Hg10 mi
10:00 PM81 °FClear.6 mph66%29.77 "Hg10 mi
9:00 PM82 °FClear.6 mph58%29.74 "Hg10 mi
8:00 PM84 °FPassing clouds.6 mph55%29.71 "HgN/A
7:00 PM88 °FPassing clouds.6 mph43%29.71 "HgN/A
6:00 PM90 °FScattered clouds.1 mph41%29.71 "HgN/A
5:00 PM88 °FScattered clouds.3 mph43%29.71 "HgN/A
4:00 PM88 °FScattered clouds.3 mph43%29.74 "HgN/A
3:00 PM90 °FScattered clouds.3 mph41%29.77 "HgN/A
2:00 PM88 °FScattered clouds.3 mph49%29.77 "HgN/A
1:00 PM86 °FScattered clouds.6 mph52%29.80 "HgN/A
12:00 PM84 °FScattered clouds.1 mph51%29.80 "HgN/A
11:00 AM82 °FPassing clouds.3 mph58%29.80 "HgN/A
10:00 AM81 °FSunny.1 mph66%29.80 "Hg10 mi
Weather by CustomWeather, © 2015

See weather overviewHow to use our weather pages